When you browse on this site, cookies collect data to enhance your experience and personalize the content and advertising you see.
Visit our Privacy Policy to learn more. By continuing to use the site, you agree to this use of cookies and data.
  • In Hungary
  • List of Countries
  • For 7 days
  • Water Temperature
  • Satellite Maps
  • Weather Map
  • News
  • Weather Widgets
  • user-avatar
    Login

    Hourly Weather Abuja

    Today, 18 January, Friday

    Time Temperature Precipitation Wind Pressure Humidity
    00:00 +29°C° 0 mm 1 mps 710 mmHg 11%
    01:00 +28°C° 0 mm 1 mps 710 mmHg 11%
    02:00 +28°C° 0 mm 1 mps 710 mmHg 11%
    03:00 +27°C° 0 mm 1 mps 710 mmHg 12%
    04:00 +27°C° 0 mm 1 mps 710 mmHg 12%
    05:00 +26°C° 0 mm 1 mps 710 mmHg 12%
    06:00 +26°C° 0 mm 1 mps 710 mmHg 12%
    07:00 +25°C° 0 mm 1 mps 710 mmHg 12%
    08:00 +28°C° 0 mm 1 mps 711 mmHg 10%
    09:00 +31°C° 0 mm 1 mps 711 mmHg 9%
    10:00 +33°C° 0 mm 1 mps 712 mmHg 8%
    11:00 +35°C° 0 mm 1 mps 711 mmHg 7%
    12:00 +36°C° 0 mm 1 mps 711 mmHg 7%
    13:00 +39°C° 0 mm 1 mps 711 mmHg 6%
    14:00 +39°C° 0 mm 1 mps 710 mmHg 6%
    15:00 +39°C° 0 mm 1 mps 710 mmHg 6%
    16:00 +40°C° 0 mm 1 mps 709 mmHg 6%
    17:00 +37°C° 0 mm 1 mps 709 mmHg 7%
    18:00 +35°C° 0 mm 1 mps 709 mmHg 7%
    19:00 +34°C° 0 mm 1 mps 709 mmHg 8%
    20:00 +33°C° 0 mm 1 mps 709 mmHg 8%
    21:00 +32°C° 0 mm 1 mps 710 mmHg 9%
    22:00 +29°C° 0 mm 0 mps 710 mmHg 9%
    23:00 +30°C° 0 mm 1 mps 710 mmHg 10%

    Tomorrow, 19 January, Saturday

    Time Temperature Precipitation Wind Pressure Humidity
    00:00 +29°C° 0 mm 1 mps 710 mmHg 10%
    01:00 +28°C° 0 mm 1 mps 710 mmHg 10%
    02:00 +28°C° 0 mm 1 mps 710 mmHg 10%
    03:00 +27°C° 0 mm 1 mps 710 mmHg 10%
    04:00 +27°C° 0 mm 2 mps 710 mmHg 10%
    05:00 +26°C° 0 mm 1 mps 710 mmHg 14%
    06:00 +25°C° 0 mm 1 mps 710 mmHg 18%
    07:00 +24°C° 0 mm 1 mps 710 mmHg 22%
    08:00 +26°C° 0 mm 2 mps 711 mmHg 32%
    09:00 +27°C° 0 mm 2 mps 712 mmHg 42%
    10:00 +29°C° 0 mm 2 mps 712 mmHg 51%
    11:00 +31°C° 0 mm 2 mps 712 mmHg 43%
    12:00 +34°C° 0 mm 2 mps 711 mmHg 35%
    13:00 +36°C° 0 mm 2 mps 711 mmHg 26%
    14:00 +36°C° 0 mm 2 mps 710 mmHg 24%
    15:00 +37°C° 0 mm 2 mps 710 mmHg 22%
    16:00 +38°C° 0 mm 2 mps 709 mmHg 20%
    17:00 +35°C° 0 mm 1 mps 709 mmHg 21%
    18:00 +34°C° 0 mm 1 mps 709 mmHg 22%
    19:00 +33°C° 0 mm 1 mps 709 mmHg 24%
    20:00 +32°C° 0 mm 1 mps 710 mmHg 25%
    21:00 +32°C° 0 mm 1 mps 710 mmHg 26%
    22:00 +31°C° 0 mm 1 mps 711 mmHg 27%
    23:00 +28°C° 0 mm 0 mps 711 mmHg 28%

    Day after tomorrow, 20 January, Sunday

    Time Temperature Precipitation Wind Pressure Humidity
    00:00 +28°C° 0 mm 0 mps 711 mmHg 29%
    01:00 +27°C° 0 mm 0 mps 710 mmHg 31%
    02:00 +27°C° 0 mm 0 mps 710 mmHg 33%
    03:00 +28°C° 0 mm 1 mps 710 mmHg 36%
    04:00 +28°C° 0 mm 1 mps 709 mmHg 38%
    05:00 +27°C° 0 mm 1 mps 710 mmHg 46%
    06:00 +26°C° 0 mm 1 mps 710 mmHg 54%
    07:00 +26°C° 0 mm 1 mps 710 mmHg 63%
    08:00 +27°C° 0 mm 1 mps 711 mmHg 60%
    09:00 +29°C° 0 mm 2 mps 712 mmHg 57%
    10:00 +31°C° 0 mm 2 mps 712 mmHg 55%
    11:00 +32°C° 0 mm 2 mps 712 mmHg 47%
    12:00 +35°C° 0 mm 2 mps 711 mmHg 40%
    13:00 +37°C° 0 mm 2 mps 711 mmHg 32%
    14:00 +37°C° 0 mm 2 mps 710 mmHg 30%
    15:00 +38°C° 0 mm 2 mps 709 mmHg 28%
    16:00 +38°C° 0 mm 2 mps 708 mmHg 25%
    17:00 +37°C° 0 mm 2 mps 709 mmHg 27%
    18:00 +36°C° 0 mm 2 mps 709 mmHg 28%
    19:00 +34°C° 0 mm 1 mps 709 mmHg 29%
    20:00 +33°C° 0 mm 1 mps 710 mmHg 31%
    21:00 +33°C° 0 mm 1 mps 710 mmHg 32%
    22:00 +32°C° 0 mm 1 mps 711 mmHg 33%
    23:00 +32°C° 0 mm 1 mps 710 mmHg 34%

    21 January, Monday

    Time Temperature Precipitation Wind Pressure Humidity
    00:00 +31°C° 0 mm 1 mps 710 mmHg 35%
    01:00 +31°C° 0 mm 1 mps 710 mmHg 36%
    02:00 +31°C° 0 mm 1 mps 709 mmHg 37%
    03:00 +28°C° 0 mm 0 mps 709 mmHg 38%
    04:00 +28°C° 0 mm 0 mps 709 mmHg 39%
    05:00 +29°C° 0 mm 1 mps 709 mmHg 40%
    06:00 +29°C° 0 mm 1 mps 709 mmHg 42%
    07:00 +29°C° 0 mm 1 mps 710 mmHg 43%
    08:00 +30°C° 0 mm 1 mps 710 mmHg 44%
    09:00 +31°C° 0 mm 2 mps 711 mmHg 45%
    10:00 +32°C° 0 mm 2 mps 712 mmHg 46%
    11:00 +34°C° 0 mm 2 mps 711 mmHg 41%
    12:00 +36°C° 0 mm 2 mps 711 mmHg 36%
    13:00 +37°C° 0 mm 2 mps 710 mmHg 31%
    14:00 +38°C° 0 mm 2 mps 709 mmHg 30%
    15:00 +37°C° 0 mm 1 mps 709 mmHg 29%
    16:00 +37°C° 0 mm 1 mps 708 mmHg 28%
    17:00 +36°C° 0 mm 1 mps 708 mmHg 29%
    18:00 +35°C° 0 mm 1 mps 708 mmHg 30%
    19:00 +34°C° 0 mm 1 mps 709 mmHg 31%
    20:00 +33°C° 0 mm 1 mps 709 mmHg 34%
    21:00 +32°C° 0 mm 1 mps 710 mmHg 37%
    22:00 +32°C° 0 mm 1 mps 710 mmHg 40%
    23:00 +31°C° 0 mm 1 mps 710 mmHg 43%

    22 January, Tuesday

    Time Temperature Precipitation Wind Pressure Humidity
    00:00 +31°C° 0 mm 1 mps 709 mmHg 46%
    01:00 +30°C° 0 mm 1 mps 709 mmHg 49%
    02:00 +29°C° 0 mm 1 mps 709 mmHg 52%
    03:00 +29°C° 0 mm 2 mps 709 mmHg 55%
    04:00 +28°C° 0 mm 2 mps 708 mmHg 57%
    05:00 +28°C° 0 mm 2 mps 709 mmHg 62%
    06:00 +27°C° 0 mm 2 mps 709 mmHg 66%
    07:00 +26°C° 0 mm 2 mps 710 mmHg 70%
    08:00 +28°C° 0 mm 2 mps 710 mmHg 64%
    09:00 +29°C° 0 mm 2 mps 711 mmHg 59%
    10:00 +30°C° 0 mm 2 mps 711 mmHg 53%
    11:00 +32°C° 0 mm 2 mps 711 mmHg 45%
    12:00 +35°C° 0 mm 2 mps 710 mmHg 37%
    13:00 +37°C° 0 mm 2 mps 710 mmHg 29%
    14:00 +38°C° 0 mm 2 mps 709 mmHg 26%
    15:00 +39°C° 0 mm 1 mps 708 mmHg 23%
    16:00 +39°C° 0 mm 1 mps 708 mmHg 21%
    17:00 +37°C° 0 mm 1 mps 708 mmHg 22%
    18:00 +36°C° 0 mm 1 mps 708 mmHg 23%
    19:00 +35°C° 0 mm 1 mps 708 mmHg 24%
    20:00 +34°C° 0 mm 1 mps 709 mmHg 24%
    21:00 +33°C° 0 mm 1 mps 709 mmHg 24%
    22:00 +33°C° 0 mm 1 mps 709 mmHg 24%
    23:00 +32°C° 0 mm 1 mps 709 mmHg 25%

    23 January, Wednesday

    Time Temperature Precipitation Wind Pressure Humidity
    00:00 +31°C° 0 mm 1 mps 709 mmHg 26%
    01:00 +31°C° 0 mm 1 mps 709 mmHg 27%
    02:00 +30°C° 0 mm 1 mps 709 mmHg 32%
    03:00 +29°C° 0 mm 2 mps 708 mmHg 36%
    04:00 +28°C° 0 mm 2 mps 708 mmHg 41%
    05:00 +28°C° 0 mm 2 mps 708 mmHg 54%
    06:00 +27°C° 0 mm 2 mps 709 mmHg 66%
    07:00 +26°C° 0 mm 2 mps 709 mmHg 78%
    08:00 +27°C° 0 mm 2 mps 710 mmHg 71%
    09:00 +29°C° 0 mm 2 mps 710 mmHg 64%
    10:00 +30°C° 0 mm 2 mps 711 mmHg 57%
    11:00 +32°C° 0 mm 2 mps 710 mmHg 47%
    12:00 +35°C° 0 mm 2 mps 710 mmHg 38%
    13:00 +37°C° 0 mm 2 mps 709 mmHg 28%
    14:00 +38°C° 0 mm 2 mps 709 mmHg 26%
    15:00 +38°C° 0 mm 2 mps 708 mmHg 23%
    16:00 +39°C° 0 mm 1 mps 707 mmHg 21%
    17:00 +37°C° 0 mm 1 mps 707 mmHg 21%
    18:00 +36°C° 0 mm 1 mps 707 mmHg 22%
    19:00 +34°C° 0 mm 1 mps 708 mmHg 23%
    20:00 +34°C° 0 mm 1 mps 708 mmHg 23%
    21:00 +33°C° 0 mm 1 mps 708 mmHg 23%
    22:00 +32°C° 0 mm 1 mps 709 mmHg 23%
    23:00 +32°C° 0 mm 1 mps 709 mmHg 23%
    Show more